Regional Weather Roundup
Issued by NWS

Home | Current Version | Previous Version | Graphics & Text | Print | Product List | Glossary On
Versions: 1 2 3 4 5 6 7 8 9 10 11 12 13 14 15 16 17 18 19 20 21 22 23 24 25 26 27 28 29 30 31 32 33 34 35 36 37 38 39 40 41 42 43 44 45 46 47 48 49 50
000
ASUS43 KLOT 070400
RWRIL

ILLINOIS REGIONAL WEATHER ROUNDUP
NATIONAL WEATHER SERVICE CHICAGO/ROMEOVILLE IL
1000 PM CST FRI MAR 06 2015

NOTE: "FAIR" INDICATES FEW OR NO CLOUDS BELOW 12,000 FEET WITH NO
SIGNIFICANT WEATHER AND/OR OBSTRUCTIONS TO VISIBILITY.

* THESE STATIONS ARE NOT UNDER NWS QUALITY CONTROL. THEY ALSO MAY NOT
  REPORT WEATHER SUCH AS PRECIPITATION OR FOG.

ILZ001-002-007-009-015-016-024-070500-
NORTHWEST ILLINOIS

CITY           SKY/WX    TMP DP  RH WIND       PRES   REMARKS
MOLINE         CLOUDY    40  27  59 SW14      30.09F
STERLING*      CLEAR     27  19  74 CALM      30.13F
$$

ILZ003-004-008-010-011-017-018-070500-
NORTH CENTRAL ILLINOIS

CITY           SKY/WX    TMP DP  RH WIND       PRES   REMARKS
ROCKFORD       PTCLDY    23  16  74 S8        30.12F WCI  14
$$

ILZ005-006-012>014-019>023-070500-
NORTHEAST ILLINOIS

CITY           SKY/WX    TMP DP  RH WIND       PRES   REMARKS
CHICAGO-OHARE  PTCLDY    25  17  72 SW12      30.15S WCI  14
CHICAGO-MIDWAY PTCLDY    25  16  68 SW15      30.18S WCI  13
AURORA         PTCLDY    22  15  75 S7        30.16F WCI  13
LANSING*       PTCLDY    21  14  74 SW14      30.20S WCI   8
WAUKEGAN       PTCLDY    23  18  81 SW13      30.13S WCI  11
DUPAGE AIRPORT CLEAR     21  15  78 S12       30.15F WCI   9
WHEELING       PTCLDY    26  17  68 SW9       30.17S WCI  17
NORTHERLY ISL    N/A     26  16  65 SW6         N/A  WCI  20
$$

LMZ740>746-070500-
SOUTHERN LAKE MICHIGAN

STATION/POSITION SKY/WX   TEMP    WIND        PRES    VSBY  WAVE
                          AIR SEA DIR/SP/G                  HT/PER
                          (F)     (DEG/KT/KT) (MB)    (MI)  (FT/S)
WAUKEGAN HARBOR            26                   N/A
HARRISON CRIB              26     210/ 32/ 38   N/A
BURNHAM HARBOR             26     220/  4/ 13   N/A
CALUMET HARBOR             25     200/ 12/ 17 1020.6S
MICHIGAN CITY              24     170/ 17/ 23   N/A
$$

ILZ025>027-034>036-040-047-049-050-058-095>099-070500-
WEST-CENTRAL ILLINOIS

CITY           SKY/WX    TMP DP  RH WIND       PRES   REMARKS
QUINCY         CLEAR     40  29  64 SW9       30.20S
$$

ILZ028>032-037-038-041>044-048-051>054-059>061-070500-
CENTRAL ILLINOIS

CITY           SKY/WX    TMP DP  RH WIND       PRES   REMARKS
DECATUR        PTCLDY    27  18  69 SW18      30.26S WCI  14
PEORIA         PTCLDY    28  20  71 S12       30.19F WCI  18
SPRINGFIELD    PTCLDY    29  20  69 S15       30.24F WCI  18
TAYLORVILLE    NOT AVBL
$$

ILZ033-039-045-046-055>057-062-063-070500-
EAST-CENTRAL ILLINOIS

CITY           SKY/WX    TMP DP  RH WIND       PRES   REMARKS
CHAMPAIGN      PTCLDY    21  14  74 S13       30.25F WCI   9
MATTOON        CLEAR     25  14  63 S14       30.28F WCI  13
$$

ILZ079-100>102-070500-
SOUTHWEST ILLINOIS

CITY           SKY/WX    TMP DP  RH WIND       PRES   REMARKS
ALTON          CLEAR     32  18  55 S17         N/A  WCI  21
BELLEVILLE     CLEAR     31  22  68 VRB6      30.33S WCI  25
CAHOKIA*       CLEAR     35  22  58 S9        30.33R WCI  28
$$

ILZ064>066-069>071-074>076-080>082-084>086-088>090-092>094-070500-
SOUTH-CENTRAL ILLINOIS

CITY           SKY/WX    TMP DP  RH WIND       PRES   REMARKS
CARBONDALE     CLEAR     26  14  60 S13       30.40S WCI  15
MT. VERNON     CLEAR     25  16  68 SW13      30.37F WCI  13
$$

ILZ067-068-072-073-078-083-087-091-070500-
SOUTHEAST ILLINOIS

CITY           SKY/WX    TMP DP  RH WIND       PRES   REMARKS
LAWRENCEVILLE  CLEAR     25  13  60 SW13      30.37S WCI  14
$$

ABBREVIATIONS USED IN REMARKS
   TC - TEMPERATURE IN CELSIUS
  WCI - WIND CHILL INDEX
   HX - HEAT INDEX
  VSB - VISIBILITY
$$



USA.gov is the U.S. government's official web portal to all federal, state and local government web resources and services.